[[{"header":{"parameterUnit":"m.s-1","parameterCategory":1,"la1":30.2991,"la2":30.254,"lo1":-89.0895,"lo2":-89.0444,"dy":0.0017,"dx":0.0017,"nx":28,"ny":28,"refTime":"2025-04-24T21:00:00:Z","depth":0,"parameterNumber":2,"parameterNumberName":"U-component_of_WINDS"},"data":[0,0,0,0,0,0,0,0,0,0,0,0,0,0,0,0,0,0,0,0,0,0,0,0,0,0,0,0,0,0,0,0,0,0,0,0,0,0,0,0,0,0,0,0,0,0,0,0,0,0,0,0,0,0,0,0,0,0,-0.5521,-0.5521,0,-0.5464,-0.5463,-0.5463,-0.5439,-0.5439,-0.544,-0.544,-0.5379,-0.5377,-0.5375,0,0,0,0,0,0,0,0,0,0,0,0,0,-0.5611,-0.5609,-0.5522,-0.5521,-0.552,-0.5464,-0.5463,-0.5462,-0.5439,-0.5439,-0.544,-0.544,-0.5379,-0.5377,-0.5375,0,0,0,0,0,0,0,0,0,0,0,0,0,-0.5564,-0.5609,-0.5522,-0.5502,-0.5499,-0.5464,-0.5463,-0.5462,-0.5439,-0.5439,-0.544,-0.544,-0.538,-0.5377,-0.5375,-0.5354,0,0,-0.5367,-0.5365,0,0,0,0,0,0,0,0,-0.5567,-0.5561,-0.5505,-0.5503,-0.55,-0.5459,-0.5472,-0.5426,-0.5439,-0.5462,-0.544,-0.544,-0.5405,-0.54,-0.5389,-0.5351,-0.5349,-0.5366,-0.5365,-0.5364,-0.5363,0,0,0,0,0,0,0,-0.557,-0.5564,-0.5499,-0.5505,-0.5502,-0.5496,-0.5489,-0.5463,-0.5433,-0.546,-0.5458,-0.5452,-0.5404,-0.5392,-0.5387,-0.5348,-0.5366,-0.5364,-0.5362,-0.5361,-0.5292,-0.5291,0,0,0,0,0,0,-0.5577,-0.5566,-0.55,-0.5497,-0.5535,-0.5494,-0.5487,-0.5472,-0.5433,-0.5427,-0.5452,-0.5451,-0.5396,-0.539,-0.5385,-0.5359,-0.5364,-0.5361,-0.536,-0.5292,-0.5291,-0.5291,0,0,0,0,0,0,-0.5579,-0.5571,-0.5503,-0.5531,-0.5522,-0.5492,-0.5476,-0.5471,-0.5459,-0.5427,-0.5421,-0.5445,-0.5396,-0.5389,-0.5362,-0.5357,-0.536,-0.5358,-0.5292,-0.5292,-0.5291,-0.5307,0,0,0,0,0,0,-0.5582,-0.5572,-0.5564,-0.5531,-0.5521,-0.5481,-0.5475,-0.547,-0.5454,-0.5453,-0.5419,-0.5414,-0.5396,-0.5366,-0.536,-0.5353,-0.5355,-0.5292,-0.5292,-0.5291,-0.5307,-0.5307,-0.5307,0,0,0,0,0,-0.5585,-0.557,-0.5564,-0.5556,-0.551,-0.5481,-0.5475,-0.5455,-0.5454,-0.5446,-0.5426,-0.5415,-0.5359,-0.5364,-0.5356,-0.5349,-0.5293,-0.5292,-0.5291,-0.5306,-0.5307,-0.5307,0,0,0,0,0,0,-0.5602,-0.5565,-0.5558,-0.5532,-0.551,-0.5477,-0.5466,-0.5456,-0.5433,-0.5432,-0.5408,-0.54,-0.5376,-0.536,-0.5366,-0.5327,-0.5325,-0.5323,-0.5339,-0.5339,-0.5339,-0.5344,-0.5353,0,0,0,0,0,-0.5603,-0.5583,-0.5552,-0.5532,-0.5521,-0.5496,-0.5482,-0.5469,-0.5445,-0.5435,-0.5413,-0.539,-0.5367,-0.5352,-0.5329,-0.5305,-0.5297,-0.5296,-0.5296,-0.5296,-0.5295,-0.5281,-0.528,-0.5289,-0.5289,-0.5289,0,0,-0.5604,-0.5582,-0.557,-0.5535,-0.5516,-0.5496,-0.5488,-0.5466,-0.5451,-0.5432,-0.5406,-0.5389,-0.5361,-0.5336,-0.5324,-0.5321,-0.5291,-0.5296,-0.5296,-0.5294,-0.528,-0.528,-0.5279,-0.5289,-0.5289,-0.5289,0,0,-0.5596,-0.5577,-0.5559,-0.5541,-0.5513,-0.5497,-0.5493,-0.5462,-0.545,-0.5424,-0.5409,-0.5391,-0.5351,-0.5333,-0.5318,-0.5305,-0.5294,-0.5298,-0.53,-0.5287,-0.5286,-0.5285,-0.5281,-0.528,-0.5297,-0.5297,-0.5297,0,-0.5601,-0.5571,-0.5551,-0.5531,-0.5516,-0.5499,-0.548,-0.5463,-0.5429,-0.5419,-0.5418,-0.537,-0.5349,-0.532,-0.5317,-0.5306,-0.53,-0.5302,-0.5288,-0.5287,-0.5286,-0.5282,-0.528,-0.5298,-0.5297,-0.5297,-0.5297,0,-0.5578,-0.5557,-0.5546,-0.5515,-0.5499,-0.5479,-0.5457,-0.5443,-0.5432,-0.5415,-0.5389,-0.5365,-0.5338,-0.533,-0.5318,-0.5299,-0.5299,-0.5293,-0.529,-0.5286,-0.5282,-0.528,-0.5298,-0.5298,-0.5298,-0.5298,0,0,-0.5578,-0.5538,-0.5534,-0.552,-0.5489,-0.5472,-0.5453,-0.5427,-0.5416,-0.5393,-0.5376,-0.5345,-0.534,-0.5323,-0.5309,-0.5298,-0.529,-0.5294,-0.5293,-0.5294,-0.5269,-0.5273,-0.5271,-0.5284,-0.5283,-0.5283,-0.5271,0,-0.5566,-0.5531,-0.5513,-0.5485,-0.5466,-0.5451,-0.5434,-0.5413,-0.5397,-0.5379,-0.5361,-0.534,-0.5334,-0.5324,-0.5313,-0.5294,-0.5285,-0.5294,-0.5267,-0.5266,-0.5274,-0.5269,-0.5273,-0.5263,-0.5269,-0.5269,-0.5269,0,-0.5547,-0.5526,-0.5497,-0.5469,-0.546,-0.5446,-0.5421,-0.5404,-0.538,-0.537,-0.5352,-0.5339,-0.5318,-0.5317,-0.5288,-0.5295,-0.5283,-0.5272,-0.5271,-0.5268,-0.5267,-0.5265,-0.5259,-0.5258,-0.5266,-0.5266,-0.5266,0,-0.555,-0.5515,-0.5493,-0.5481,-0.5449,-0.5439,-0.5425,-0.5401,-0.5387,-0.5366,-0.5357,-0.5333,-0.532,-0.5302,-0.5283,-0.5284,-0.5256,-0.5253,-0.5246,-0.5247,-0.524,-0.5241,-0.5233,-0.5233,-0.5233,-0.5233,-0.5233,0,-0.5538,-0.5521,-0.5494,-0.548,-0.5461,-0.5441,-0.5422,-0.5407,-0.5387,-0.537,-0.5355,-0.5339,-0.5315,-0.5297,-0.5282,-0.526,-0.5254,-0.5245,-0.5241,-0.5246,-0.5248,-0.5238,-0.5238,-0.5233,-0.5233,-0.5233,-0.5233,0,-0.5538,-0.5519,-0.5495,-0.5466,-0.5459,-0.5446,-0.5422,-0.5408,-0.5393,-0.5372,-0.5366,-0.5341,-0.5319,-0.5298,-0.5268,-0.5258,-0.5237,-0.5232,-0.5245,-0.5243,-0.5237,-0.5238,-0.5222,-0.5219,-0.5222,-0.5222,-0.5222,0,-0.5532,-0.5518,-0.5489,-0.5478,-0.5464,-0.5445,-0.5431,-0.5412,-0.5398,-0.5371,-0.5361,-0.5338,-0.5318,-0.5283,-0.5263,-0.524,-0.5234,-0.523,-0.5231,-0.5237,-0.5234,-0.5235,-0.5234,-0.523,-0.5231,-0.5231,-0.5231,0,-0.5523,-0.5515,-0.5495,-0.5473,-0.5458,-0.5439,-0.542,-0.5411,-0.5388,-0.5373,-0.5351,-0.5336,-0.5306,-0.5284,-0.5259,-0.5244,-0.5234,-0.5231,-0.5228,-0.5233,-0.5241,-0.5237,-0.5246,-0.5231,-0.5231,-0.5231,-0.5231,-0.5231,-0.5519,-0.5507,-0.5485,-0.5465,-0.5449,-0.5432,-0.5418,-0.5401,-0.5383,-0.5358,-0.5347,-0.5325,-0.5303,-0.5269,-0.5254,-0.5236,-0.5234,-0.523,-0.5229,-0.5228,-0.5229,-0.5245,-0.5232,-0.5231,-0.5231,-0.5231,-0.5231,0,-0.5509,-0.5495,-0.5477,-0.5451,-0.5435,-0.5428,-0.5407,-0.5394,-0.5375,-0.5355,-0.5337,-0.5312,-0.529,-0.5269,-0.5246,-0.5236,-0.523,-0.523,-0.5231,-0.5228,-0.5232,-0.5237,-0.5235,-0.5235,-0.5235,-0.5235,-0.5235,-0.5235,-0.5502,-0.5482,-0.5471,-0.5442,-0.5428,-0.5406,-0.5395,-0.538,-0.5364,-0.5337,-0.532,-0.5306,-0.5286,-0.5262,-0.5242,-0.5236,-0.5228,-0.523,-0.5223,-0.5227,-0.5227,-0.5227,-0.5231,-0.5228,-0.5228,-0.5219,-0.5219,-0.5219]},{"header":{"parameterUnit":"m.s-1","parameterCategory":1,"la1":30.2991,"la2":30.254,"lo1":-89.0895,"lo2":-89.0444,"dy":0.0017,"dx":0.0017,"nx":28,"ny":28,"refTime":"2025-04-24T21:00:00:Z","depth":0,"parameterNumber":3,"parameterNumberName":"V-component_of_WINDS"},"data":[0,0,0,0,0,0,0,0,0,0,0,0,0,0,0,0,0,0,0,0,0,0,0,0,0,0,0,0,0,0,0,0,0,0,0,0,0,0,0,0,0,0,0,0,0,0,0,0,0,0,0,0,0,0,0,0,0,0,0.6903,0.6902,0,0.6858,0.6858,0.6857,0.6854,0.6855,0.6855,0.6856,0.6811,0.6809,0.6808,0,0,0,0,0,0,0,0,0,0,0,0,0,0.6986,0.6985,0.6903,0.6902,0.6902,0.6858,0.6858,0.6857,0.6854,0.6855,0.6855,0.6856,0.6812,0.681,0.6808,0,0,0,0,0,0,0,0,0,0,0,0,0,0.6947,0.6984,0.6903,0.6895,0.6894,0.6858,0.6858,0.6857,0.6854,0.6855,0.6856,0.6856,0.6812,0.681,0.6807,0.6777,0,0,0.68,0.6799,0,0,0,0,0,0,0,0,0.6949,0.6944,0.6897,0.6896,0.6894,0.6863,0.6871,0.683,0.6854,0.6869,0.6856,0.6857,0.6828,0.6824,0.6814,0.6775,0.6773,0.68,0.6798,0.6797,0.6796,0,0,0,0,0,0,0,0.6952,0.6945,0.6885,0.6896,0.6894,0.6894,0.6889,0.6863,0.6845,0.6868,0.6868,0.6862,0.6827,0.6816,0.6813,0.6773,0.68,0.6797,0.6796,0.6795,0.6705,0.6705,0,0,0,0,0,0,0.6956,0.6948,0.6887,0.6884,0.6924,0.6892,0.6886,0.6872,0.6845,0.6842,0.6862,0.6862,0.682,0.6816,0.6811,0.6773,0.6797,0.6795,0.6793,0.6706,0.6705,0.6704,0,0,0,0,0,0,0.6957,0.695,0.6888,0.6916,0.6908,0.689,0.6873,0.6871,0.686,0.684,0.6837,0.6854,0.6821,0.6815,0.6785,0.6771,0.6794,0.6791,0.6707,0.6706,0.6705,0.6697,0,0,0,0,0,0,0.696,0.6951,0.6939,0.6915,0.6906,0.6863,0.6873,0.6869,0.6856,0.6856,0.6832,0.6829,0.6821,0.6789,0.6783,0.6768,0.6789,0.6708,0.6707,0.6705,0.6698,0.6695,0.6693,0,0,0,0,0,0.6963,0.6939,0.6939,0.6931,0.6891,0.6862,0.6857,0.6848,0.6855,0.6842,0.683,0.683,0.6774,0.6786,0.6779,0.6764,0.6709,0.6707,0.6705,0.6699,0.6696,0.6693,0,0,0,0,0,0,0.6962,0.6936,0.6935,0.6903,0.6885,0.6862,0.6846,0.6844,0.6824,0.6825,0.6815,0.681,0.678,0.6769,0.6783,0.6732,0.6743,0.6739,0.674,0.6737,0.6734,0.6737,0.6787,0,0,0,0,0,0.6958,0.6937,0.6915,0.6889,0.688,0.6865,0.6852,0.6846,0.6827,0.6819,0.6805,0.6786,0.6764,0.675,0.673,0.6697,0.6691,0.6683,0.668,0.6678,0.6675,0.6656,0.6652,0.6698,0.6698,0.6698,0,0,0.695,0.6933,0.692,0.6888,0.6874,0.6851,0.6858,0.6835,0.6818,0.6816,0.6786,0.6775,0.6754,0.6723,0.6708,0.6713,0.6661,0.6676,0.6674,0.6672,0.6653,0.6649,0.6645,0.6696,0.6696,0.6697,0,0,0.6923,0.6909,0.6885,0.687,0.6847,0.6837,0.6831,0.6808,0.68,0.6771,0.6768,0.6749,0.6712,0.6696,0.6684,0.6651,0.665,0.6644,0.663,0.6612,0.6608,0.6605,0.6592,0.6587,0.6641,0.6641,0.6641,0,0.6916,0.6882,0.6873,0.6849,0.6834,0.6831,0.6806,0.6792,0.6764,0.6754,0.676,0.6713,0.6699,0.6663,0.6655,0.6645,0.6638,0.6646,0.6609,0.6606,0.6603,0.659,0.6585,0.6641,0.6641,0.6641,0.6641,0,0.6873,0.685,0.6833,0.6805,0.6789,0.6765,0.6752,0.6737,0.6733,0.6722,0.6692,0.6675,0.6649,0.6641,0.6637,0.6604,0.6608,0.6611,0.6621,0.6598,0.6586,0.6581,0.664,0.664,0.664,0.664,0,0,0.6845,0.6811,0.6805,0.6792,0.6767,0.6748,0.6724,0.6699,0.6686,0.6667,0.6645,0.6614,0.6617,0.6603,0.6597,0.6581,0.6554,0.6586,0.6586,0.658,0.6516,0.6512,0.6507,0.6554,0.6553,0.6552,0.6517,0,0.6814,0.677,0.676,0.6722,0.67,0.6696,0.6675,0.6657,0.6647,0.6626,0.6615,0.6592,0.6599,0.659,0.6574,0.6561,0.6541,0.6563,0.6533,0.6532,0.6537,0.6501,0.6497,0.6464,0.6512,0.6512,0.6511,0,0.6772,0.6751,0.671,0.6687,0.6677,0.6658,0.6634,0.6615,0.6594,0.6588,0.6571,0.6567,0.6541,0.6553,0.6517,0.6533,0.652,0.6512,0.6511,0.6506,0.6519,0.6494,0.6454,0.6449,0.6504,0.6504,0.6505,0,0.6753,0.6715,0.6685,0.6674,0.6647,0.6633,0.6621,0.6601,0.6586,0.6566,0.6556,0.6533,0.652,0.6502,0.6491,0.6501,0.6456,0.6467,0.6449,0.6449,0.6438,0.6439,0.6394,0.6433,0.6433,0.6433,0.6433,0,0.6719,0.6694,0.6676,0.6658,0.6629,0.6619,0.6591,0.658,0.6562,0.6541,0.6537,0.6518,0.6506,0.6485,0.6477,0.6447,0.6442,0.6436,0.6433,0.6435,0.6436,0.6426,0.6427,0.6431,0.6432,0.6432,0.6432,0,0.6693,0.668,0.6647,0.6623,0.6617,0.6597,0.6577,0.6559,0.6548,0.6522,0.6515,0.6498,0.6473,0.6461,0.6431,0.6425,0.6391,0.6392,0.6398,0.6397,0.6379,0.638,0.6325,0.6317,0.6362,0.6362,0.6361,0,0.6671,0.6652,0.6626,0.6611,0.6598,0.6575,0.656,0.6549,0.6533,0.6508,0.6493,0.6468,0.6446,0.6406,0.6392,0.6368,0.6366,0.6349,0.6363,0.6365,0.6364,0.6365,0.6363,0.6346,0.6345,0.6345,0.6345,0,0.6634,0.6628,0.6606,0.6581,0.6563,0.6543,0.6523,0.6512,0.6498,0.648,0.6454,0.6438,0.6406,0.638,0.6355,0.6343,0.6341,0.6341,0.6335,0.6336,0.6339,0.6336,0.6389,0.6342,0.6342,0.6342,0.6342,0.6343,0.6608,0.659,0.6568,0.6544,0.6528,0.6509,0.6491,0.6478,0.6455,0.6428,0.6423,0.6395,0.6375,0.6341,0.6328,0.6306,0.631,0.6302,0.63,0.6297,0.6295,0.6344,0.6301,0.6301,0.6301,0.6302,0.6302,0,0.6569,0.6555,0.6532,0.6505,0.6485,0.6485,0.6463,0.6447,0.6422,0.6403,0.6382,0.6351,0.6326,0.631,0.6284,0.627,0.6268,0.6263,0.6264,0.6261,0.6294,0.6301,0.6265,0.6265,0.6265,0.6265,0.6265,0.6265,0.6547,0.6515,0.6507,0.6468,0.6454,0.6426,0.6414,0.6396,0.6381,0.6347,0.6326,0.6315,0.6297,0.627,0.6247,0.6243,0.6233,0.6228,0.6223,0.6255,0.6258,0.6262,0.6268,0.6226,0.6226,0.6191,0.6191,0.6191]}]]